Time,TemperatureF,DewpointF,PressureIn,WindDirection,WindDirectionDegrees,WindSpeedMPH,WindSpeedGustMPH,Humidity,HourlyPrecipIn,Conditions,Clouds,dailyrainin,SoftwareType,DateUTC
2013-03-02 00:02:00,32.0,24.0,29.83,WNW,294,4.0,6.0,71,0.00,,,0.00,,2013-03-02 05:02:00,
2013-03-02 00:12:00,32.0,24.0,29.83,WNW,294,4.0,6.0,71,0.00,,,0.00,,2013-03-02 05:12:00,
2013-03-02 00:22:00,32.0,24.0,29.83,WNW,294,3.0,6.0,72,0.00,,,0.00,,2013-03-02 05:22:00,
2013-03-02 00:32:00,32.0,24.0,29.83,WNW,294,3.0,6.0,72,0.00,,,0.00,,2013-03-02 05:32:00,
2013-03-02 00:42:00,32.0,24.0,29.83,WNW,294,3.0,6.0,72,0.00,,,0.00,,2013-03-02 05:42:00,
2013-03-02 00:52:00,32.0,24.0,29.83,WNW,294,0.0,4.0,73,0.00,,,0.00,,2013-03-02 05:52:00,
2013-03-02 01:01:00,32.0,24.0,29.83,WNW,294,0.0,4.0,73,0.00,,,0.00,,2013-03-02 06:01:00,
2013-03-02 01:11:00,32.0,24.0,29.83,WNW,294,0.0,4.0,73,0.00,,,0.00,,2013-03-02 06:11:00,
2013-03-02 01:21:00,32.0,24.0,29.83,WNW,294,0.0,2.0,73,0.00,,,0.00,,2013-03-02 06:21:00,
2013-03-02 01:32:00,32.0,24.0,29.83,WNW,294,0.0,2.0,73,0.00,,,0.00,,2013-03-02 06:32:00,
2013-03-02 01:42:00,32.0,24.0,29.83,WNW,294,0.0,2.0,73,0.00,,,0.00,,2013-03-02 06:42:00,
2013-03-02 01:52:00,32.0,24.0,29.82,WNW,296,3.0,8.0,73,0.00,,,0.00,,2013-03-02 06:52:00,
2013-03-02 02:01:00,32.0,24.0,29.82,WNW,296,3.0,8.0,73,0.00,,,0.00,,2013-03-02 07:01:00,
2013-03-02 02:11:00,33.0,25.0,29.83,NW,309,5.0,10.0,72,0.00,,,0.00,,2013-03-02 07:11:00,
2013-03-02 02:21:00,33.0,25.0,29.83,NW,309,5.0,10.0,72,0.00,,,0.00,,2013-03-02 07:21:00,
2013-03-02 02:32:00,33.0,25.0,29.83,NW,309,5.0,10.0,72,0.00,,,0.00,,2013-03-02 07:32:00,
2013-03-02 02:42:00,33.0,25.0,29.83,NW,309,5.0,10.0,72,0.00,,,0.00,,2013-03-02 07:42:00,
2013-03-02 02:52:00,33.0,25.0,29.82,NW,306,6.0,13.0,72,0.00,,,0.00,,2013-03-02 07:52:00,
2013-03-02 03:01:00,33.0,25.0,29.82,NW,306,6.0,13.0,72,0.00,,,0.00,,2013-03-02 08:01:00,
2013-03-02 03:11:00,33.0,25.0,29.82,NW,306,6.0,13.0,72,0.00,,,0.00,,2013-03-02 08:11:00,
2013-03-02 03:22:00,33.0,25.0,29.82,NW,313,6.0,11.0,72,0.00,,,0.00,,2013-03-02 08:22:00,
2013-03-02 03:32:00,33.0,25.0,29.82,NW,313,6.0,11.0,72,0.00,,,0.00,,2013-03-02 08:32:00,
2013-03-02 03:43:00,33.0,25.0,29.82,NW,313,6.0,11.0,72,0.00,,,0.00,,2013-03-02 08:43:00,
2013-03-02 03:52:00,32.0,24.0,29.81,NW,322,1.0,13.0,72,0.00,,,0.00,,2013-03-02 08:52:00,
2013-03-02 04:02:00,32.0,24.0,29.81,NW,322,1.0,13.0,72,0.00,,,0.00,,2013-03-02 09:02:00,
2013-03-02 04:11:00,32.0,24.0,29.82,NW,313,4.0,7.0,72,0.00,,,0.00,,2013-03-02 09:11:00,
2013-03-02 04:22:00,32.0,24.0,29.82,NW,313,4.0,7.0,72,0.00,,,0.00,,2013-03-02 09:22:00,
2013-03-02 04:32:00,32.0,24.0,29.82,NW,313,4.0,7.0,72,0.00,,,0.00,,2013-03-02 09:32:00,
2013-03-02 04:42:00,32.0,24.0,29.82,NW,313,4.0,7.0,72,0.00,,,0.00,,2013-03-02 09:42:00,
2013-03-02 04:52:00,32.0,24.0,29.82,WNW,293,3.0,10.0,72,0.00,,,0.00,,2013-03-02 09:52:00,
2013-03-02 05:01:00,32.0,24.0,29.82,WNW,293,3.0,10.0,72,0.00,,,0.00,,2013-03-02 10:01:00,
2013-03-02 05:16:00,32.0,24.0,29.82,WNW,293,3.0,10.0,72,0.00,,,0.00,,2013-03-02 10:16:00,
2013-03-02 05:22:00,32.0,24.0,29.82,WNW,290,5.0,12.0,72,0.00,,,0.00,,2013-03-02 10:22:00,
2013-03-02 05:32:00,32.0,24.0,29.82,WNW,290,5.0,12.0,72,0.00,,,0.00,,2013-03-02 10:32:00,
2013-03-02 05:43:00,32.0,24.0,29.82,WNW,290,5.0,12.0,72,0.00,,,0.00,,2013-03-02 10:43:00,
2013-03-02 05:52:00,32.0,24.0,29.83,WNW,302,4.0,8.0,72,0.00,,,0.00,,2013-03-02 10:52:00,
2013-03-02 06:01:00,32.0,24.0,29.83,WNW,302,4.0,8.0,72,0.00,,,0.00,,2013-03-02 11:01:00,
2013-03-02 06:11:00,32.0,24.0,29.83,WNW,302,4.0,8.0,72,0.00,,,0.00,,2013-03-02 11:11:00,
2013-03-02 06:21:00,32.0,24.0,29.83,NW,313,5.0,10.0,72,0.00,,,0.00,,2013-03-02 11:21:00,
2013-03-02 06:32:00,32.0,24.0,29.83,NW,313,5.0,10.0,72,0.00,,,0.00,,2013-03-02 11:32:00,
2013-03-02 06:42:00,32.0,24.0,29.83,NW,313,5.0,10.0,72,0.00,,,0.00,,2013-03-02 11:42:00,
2013-03-02 06:52:00,31.0,23.0,29.83,NNW,342,5.0,10.0,73,0.00,,,0.00,,2013-03-02 11:52:00,
2013-03-02 07:02:00,31.0,23.0,29.83,NNW,342,5.0,10.0,73,0.00,,,0.00,,2013-03-02 12:02:00,
2013-03-02 07:11:00,31.0,23.0,29.83,NNW,342,5.0,10.0,73,0.00,,,0.00,,2013-03-02 12:11:00,
2013-03-02 07:22:00,31.0,23.0,29.83,NW,304,5.0,10.0,73,0.00,,,0.00,,2013-03-02 12:22:00,
2013-03-02 07:33:00,31.0,23.0,29.83,NW,304,5.0,10.0,73,0.00,,,0.00,,2013-03-02 12:33:00,
2013-03-02 07:43:00,31.0,23.0,29.83,NW,304,5.0,10.0,73,0.00,,,0.00,,2013-03-02 12:43:00,
2013-03-02 07:53:00,31.0,23.0,29.83,NW,311,2.0,8.0,73,0.00,,,0.00,,2013-03-02 12:53:00,
2013-03-02 08:01:00,31.0,23.0,29.83,NW,311,2.0,8.0,73,0.00,,,0.00,,2013-03-02 13:01:00,
2013-03-02 08:11:00,31.0,23.0,29.83,NW,311,2.0,8.0,73,0.00,,,0.00,,2013-03-02 13:11:00,
2013-03-02 08:22:00,31.0,23.0,29.84,NW,317,2.0,10.0,73,0.00,,,0.00,,2013-03-02 13:22:00,
2013-03-02 08:32:00,31.0,23.0,29.84,NW,317,2.0,10.0,73,0.00,,,0.00,,2013-03-02 13:32:00,
2013-03-02 08:42:00,31.0,23.0,29.84,NW,317,2.0,10.0,73,0.00,,,0.00,,2013-03-02 13:42:00,
2013-03-02 08:52:00,31.0,23.0,29.84,WNW,297,5.0,10.0,72,0.00,,,0.00,,2013-03-02 13:52:00,
2013-03-02 09:01:00,31.0,23.0,29.84,WNW,297,5.0,10.0,72,0.00,,,0.00,,2013-03-02 14:01:00,
2013-03-02 09:11:00,31.0,23.0,29.84,WNW,297,5.0,10.0,72,0.00,,,0.00,,2013-03-02 14:11:00,
2013-03-02 09:22:00,31.0,23.0,29.84,NNW,331,8.0,13.0,71,0.00,,,0.00,,2013-03-02 14:22:00,
2013-03-02 09:32:00,31.0,23.0,29.84,NNW,331,8.0,13.0,71,0.00,,,0.00,,2013-03-02 14:32:00,
2013-03-02 09:42:00,31.0,23.0,29.84,NNW,331,8.0,13.0,71,0.00,,,0.00,,2013-03-02 14:42:00,
2013-03-02 09:52:00,32.0,23.0,29.83,NW,306,7.0,12.0,69,0.00,,,0.00,,2013-03-02 14:52:00,
2013-03-02 10:02:00,32.0,23.0,29.83,NW,306,7.0,12.0,69,0.00,,,0.00,,2013-03-02 15:02:00,
2013-03-02 10:11:00,32.0,23.0,29.83,NW,306,7.0,12.0,69,0.00,,,0.00,,2013-03-02 15:11:00,
2013-03-02 10:22:00,32.0,22.0,29.83,NW,309,7.0,11.0,66,0.00,,,0.00,,2013-03-02 15:22:00,
2013-03-02 10:32:00,32.0,22.0,29.83,NW,309,7.0,11.0,66,0.00,,,0.00,,2013-03-02 15:32:00,
2013-03-02 10:42:00,32.0,22.0,29.83,NW,309,7.0,11.0,66,0.00,,,0.00,,2013-03-02 15:42:00,
2013-03-02 10:52:00,33.0,23.0,29.83,NNW,329,5.0,9.0,66,0.00,,,0.00,,2013-03-02 15:52:00,
2013-03-02 11:02:00,33.0,23.0,29.83,NNW,329,5.0,9.0,66,0.00,,,0.00,,2013-03-02 16:02:00,
2013-03-02 11:11:00,33.0,23.0,29.83,NNW,329,5.0,9.0,66,0.00,,,0.00,,2013-03-02 16:11:00,
2013-03-02 11:21:00,33.0,23.0,29.82,West,273,8.0,14.0,66,0.00,,,0.00,,2013-03-02 16:21:00,
2013-03-02 11:32:00,33.0,23.0,29.82,West,273,8.0,14.0,66,0.00,,,0.00,,2013-03-02 16:32:00,
2013-03-02 11:42:00,33.0,23.0,29.82,West,273,8.0,14.0,66,0.00,,,0.00,,2013-03-02 16:42:00,
2013-03-02 11:52:00,34.0,24.0,29.82,WNW,296,5.0,12.0,67,0.00,,,0.00,,2013-03-02 16:52:00,
2013-03-02 12:01:00,34.0,24.0,29.82,WNW,296,5.0,12.0,67,0.00,,,0.00,,2013-03-02 17:01:00,
2013-03-02 12:12:00,34.0,24.0,29.82,WNW,296,5.0,12.0,67,0.00,,,0.00,,2013-03-02 17:12:00,
2013-03-02 12:21:00,34.0,24.0,29.81,WNW,294,6.0,11.0,66,0.00,,,0.00,,2013-03-02 17:21:00,
2013-03-02 12:32:00,34.0,24.0,29.81,WNW,294,6.0,11.0,66,0.00,,,0.00,,2013-03-02 17:32:00,
2013-03-02 12:42:00,34.0,24.0,29.81,WNW,294,6.0,11.0,66,0.00,,,0.00,,2013-03-02 17:42:00,
2013-03-02 12:52:00,34.0,24.0,29.79,WNW,288,7.0,14.0,67,0.00,,,0.00,,2013-03-02 17:52:00,
2013-03-02 13:02:00,34.0,24.0,29.79,WNW,288,7.0,14.0,67,0.00,,,0.00,,2013-03-02 18:02:00,
2013-03-02 13:12:00,34.0,24.0,29.79,WNW,288,7.0,14.0,67,0.00,,,0.00,,2013-03-02 18:12:00,
2013-03-02 13:22:00,34.0,23.0,29.79,NW,305,6.0,16.0,65,0.00,,,0.00,,2013-03-02 18:22:00,
2013-03-02 13:32:00,34.0,23.0,29.79,NW,305,6.0,16.0,65,0.00,,,0.00,,2013-03-02 18:32:00,
2013-03-02 13:42:00,34.0,23.0,29.79,NW,305,6.0,16.0,65,0.00,,,0.00,,2013-03-02 18:42:00,
2013-03-02 13:52:00,34.0,23.0,29.78,West,275,7.0,18.0,65,0.00,,,0.00,,2013-03-02 18:52:00,
2013-03-02 14:01:00,34.0,23.0,29.78,West,275,7.0,18.0,65,0.00,,,0.00,,2013-03-02 19:01:00,
2013-03-02 14:12:00,34.0,23.0,29.78,West,275,7.0,18.0,65,0.00,,,0.00,,2013-03-02 19:12:00,
2013-03-02 14:22:00,35.0,24.0,29.78,WNW,300,5.0,16.0,64,0.00,,,0.00,,2013-03-02 19:22:00,
2013-03-02 14:32:00,35.0,24.0,29.78,WNW,300,5.0,16.0,64,0.00,,,0.00,,2013-03-02 19:32:00,
2013-03-02 14:42:00,35.0,24.0,29.78,WNW,300,5.0,16.0,64,0.00,,,0.00,,2013-03-02 19:42:00,
2013-03-02 14:52:00,33.0,23.0,29.78,WNW,301,5.0,14.0,66,0.00,,,0.00,,2013-03-02 19:52:00,
2013-03-02 15:01:00,33.0,23.0,29.78,WNW,301,5.0,14.0,66,0.00,,,0.00,,2013-03-02 20:01:00,
2013-03-02 15:11:00,33.0,23.0,29.78,WNW,301,5.0,14.0,66,0.00,,,0.00,,2013-03-02 20:11:00,
2013-03-02 15:22:00,34.0,23.0,29.78,NW,304,7.0,16.0,64,0.00,,,0.00,,2013-03-02 20:22:00,
2013-03-02 15:32:00,34.0,23.0,29.78,NW,304,7.0,16.0,64,0.00,,,0.00,,2013-03-02 20:32:00,
2013-03-02 15:42:00,34.0,23.0,29.78,NW,304,7.0,16.0,64,0.00,,,0.00,,2013-03-02 20:42:00,
2013-03-02 15:53:00,34.0,22.0,29.78,WNW,292,8.0,14.0,62,0.00,,,0.00,,2013-03-02 20:53:00,
2013-03-02 16:02:00,34.0,22.0,29.78,WNW,292,8.0,14.0,62,0.00,,,0.00,,2013-03-02 21:02:00,
2013-03-02 16:12:00,34.0,22.0,29.78,WNW,292,8.0,14.0,62,0.00,,,0.00,,2013-03-02 21:12:00,
2013-03-02 16:22:00,35.0,23.0,29.78,WNW,298,7.0,13.0,60,0.00,,,0.00,,2013-03-02 21:22:00,
2013-03-02 16:32:00,35.0,23.0,29.78,WNW,298,7.0,13.0,60,0.00,,,0.00,,2013-03-02 21:32:00,
2013-03-02 16:42:00,35.0,23.0,29.78,WNW,298,7.0,13.0,60,0.00,,,0.00,,2013-03-02 21:42:00,
2013-03-02 16:52:00,35.0,22.0,29.77,WNW,300,2.0,12.0,59,0.00,,,0.00,,2013-03-02 21:52:00,
2013-03-02 17:02:00,35.0,22.0,29.77,WNW,300,2.0,12.0,59,0.00,,,0.00,,2013-03-02 22:02:00,
2013-03-02 17:12:00,35.0,22.0,29.77,WNW,300,2.0,12.0,59,0.00,,,0.00,,2013-03-02 22:12:00,
2013-03-02 17:22:00,34.0,21.0,29.78,West,281,9.0,16.0,58,0.00,,,0.00,,2013-03-02 22:22:00,
2013-03-02 17:32:00,34.0,21.0,29.78,West,281,9.0,16.0,58,0.00,,,0.00,,2013-03-02 22:32:00,
2013-03-02 17:42:00,34.0,21.0,29.78,West,281,9.0,16.0,58,0.00,,,0.00,,2013-03-02 22:42:00,
2013-03-02 17:52:00,33.0,21.0,29.78,NW,307,5.0,10.0,61,0.00,,,0.00,,2013-03-02 22:52:00,
2013-03-02 18:01:00,33.0,21.0,29.78,NW,307,5.0,10.0,61,0.00,,,0.00,,2013-03-02 23:01:00,
2013-03-02 18:11:00,33.0,21.0,29.79,NW,305,4.0,9.0,61,0.00,,,0.00,,2013-03-02 23:11:00,
2013-03-02 18:21:00,33.0,21.0,29.79,NW,305,4.0,9.0,61,0.00,,,0.00,,2013-03-02 23:21:00,
2013-03-02 18:32:00,33.0,21.0,29.79,NW,305,4.0,9.0,61,0.00,,,0.00,,2013-03-02 23:32:00,
2013-03-02 18:42:00,33.0,21.0,29.79,NW,305,4.0,9.0,61,0.00,,,0.00,,2013-03-02 23:42:00,
2013-03-02 18:52:00,31.0,20.0,29.79,NW,308,3.0,10.0,64,0.00,,,0.00,,2013-03-02 23:52:00,
2013-03-02 19:02:00,31.0,20.0,29.79,NW,308,3.0,10.0,64,0.00,,,0.00,,2013-03-03 00:02:00,
2013-03-02 19:11:00,31.0,20.0,29.79,NW,308,3.0,10.0,64,0.00,,,0.00,,2013-03-03 00:11:00,
2013-03-02 19:22:00,31.0,21.0,29.80,WNW,286,4.0,12.0,65,0.00,,,0.00,,2013-03-03 00:22:00,
2013-03-02 19:32:00,31.0,21.0,29.80,WNW,286,4.0,12.0,65,0.00,,,0.00,,2013-03-03 00:32:00,
2013-03-02 19:42:00,31.0,21.0,29.80,WNW,286,4.0,12.0,65,0.00,,,0.00,,2013-03-03 00:42:00,
2013-03-02 19:52:00,31.0,21.0,29.80,NW,312,6.0,10.0,67,0.00,,,0.00,,2013-03-03 00:52:00,
2013-03-02 20:01:00,31.0,21.0,29.80,NW,312,6.0,10.0,67,0.00,,,0.00,,2013-03-03 01:01:00,
2013-03-02 20:11:00,31.0,21.0,29.80,NW,312,6.0,10.0,67,0.00,,,0.00,,2013-03-03 01:11:00,
2013-03-02 20:21:00,30.0,21.0,29.80,NW,315,4.0,11.0,68,0.00,,,0.00,,2013-03-03 01:21:00,
2013-03-02 20:32:00,30.0,21.0,29.80,NW,315,4.0,11.0,68,0.00,,,0.00,,2013-03-03 01:32:00,
2013-03-02 20:42:00,30.0,21.0,29.80,NW,315,4.0,11.0,68,0.00,,,0.00,,2013-03-03 01:42:00,
2013-03-02 20:52:00,30.0,21.0,29.81,WNW,292,4.0,9.0,69,0.00,,,0.00,,2013-03-03 01:52:00,
2013-03-02 21:01:00,30.0,21.0,29.81,WNW,292,4.0,9.0,69,0.00,,,0.00,,2013-03-03 02:01:00,
2013-03-02 21:11:00,30.0,21.0,29.81,WNW,292,4.0,9.0,69,0.00,,,0.00,,2013-03-03 02:11:00,
2013-03-02 21:21:00,30.0,21.0,29.81,NNW,329,8.0,15.0,70,0.00,,,0.00,,2013-03-03 02:21:00,
2013-03-02 21:32:00,30.0,21.0,29.81,NNW,329,8.0,15.0,70,0.00,,,0.00,,2013-03-03 02:32:00,
2013-03-02 21:42:00,30.0,21.0,29.81,NNW,329,8.0,15.0,70,0.00,,,0.00,,2013-03-03 02:42:00,
2013-03-02 21:52:00,30.0,22.0,29.81,WNW,291,5.0,12.0,71,0.00,,,0.00,,2013-03-03 02:52:00,
2013-03-02 22:01:00,30.0,22.0,29.81,WNW,291,5.0,12.0,71,0.00,,,0.00,,2013-03-03 03:01:00,
2013-03-02 22:11:00,30.0,22.0,29.81,WNW,291,5.0,12.0,71,0.00,,,0.00,,2013-03-03 03:11:00,
2013-03-02 22:22:00,30.0,22.0,29.81,WNW,301,5.0,9.0,71,0.00,,,0.00,,2013-03-03 03:22:00,
2013-03-02 22:32:00,30.0,22.0,29.81,WNW,301,5.0,9.0,71,0.00,,,0.00,,2013-03-03 03:32:00,
2013-03-02 22:42:00,30.0,22.0,29.81,WNW,301,5.0,9.0,71,0.00,,,0.00,,2013-03-03 03:42:00,
2013-03-02 22:52:00,30.0,21.0,29.81,NW,305,3.0,12.0,70,0.00,,,0.00,,2013-03-03 03:52:00,
2013-03-02 23:01:00,30.0,21.0,29.81,NW,305,3.0,12.0,70,0.00,,,0.00,,2013-03-03 04:01:00,
2013-03-02 23:11:00,30.0,21.0,29.81,NW,305,3.0,12.0,70,0.00,,,0.00,,2013-03-03 04:11:00,
2013-03-02 23:21:00,30.0,21.0,29.80,West,280,5.0,14.0,70,0.00,,,0.00,,2013-03-03 04:21:00,
2013-03-02 23:32:00,30.0,21.0,29.80,West,280,5.0,14.0,70,0.00,,,0.00,,2013-03-03 04:32:00,
2013-03-02 23:42:00,30.0,21.0,29.80,West,280,5.0,14.0,70,0.00,,,0.00,,2013-03-03 04:42:00,
2013-03-02 23:52:00,30.0,21.0,29.80,NW,304,6.0,13.0,70,0.00,,,0.00,,2013-03-03 04:52:00,